[[{"header":{"parameterUnit":"m.s-1","parameterCategory":2,"la1":30.2991,"la2":30.254,"lo1":-89.0895,"lo2":-89.0444,"dy":0.0017,"dx":0.0017,"nx":28,"ny":28,"refTime":"2025-09-17T03:00:00:Z","depth":"0","parameterNumber":2,"parameterNumberName":"U-component_of_CURRENTS"},"data":[0,0,0,0,0,0,0,0,0,0,0,0,0,0,0,0,0,0,0,0,0,0,0,0,0,0,0,0,0,0,0,0,0,0,0,0,0,0,0,0,0,0,0,0,0,0,0,0,0,0,0,0,0,0,0,0,0,0,0.2431,0.2431,0,0.2464,0.2464,0.2464,0.2527,0.2529,0.253,0.2532,0.2505,0.2503,0.2501,0,0,0,0,0,0,0,0,0,0,0,0,0,0.243,0.2429,0.2431,0.2431,0.2432,0.2464,0.2464,0.2464,0.2527,0.2529,0.2531,0.2532,0.2505,0.2503,0.25,0,0,0,0,0,0,0,0,0,0,0,0,0,0.2441,0.2429,0.2431,0.2469,0.2473,0.2464,0.2464,0.2464,0.2527,0.2529,0.2531,0.2533,0.2506,0.2503,0.25,0.2437,0,0,0.2491,0.2489,0,0,0,0,0,0,0,0,0.244,0.244,0.2463,0.2466,0.2471,0.2496,0.2454,0.2453,0.2526,0.2504,0.2532,0.2534,0.2496,0.2494,0.2493,0.2436,0.2435,0.249,0.2488,0.2487,0.2486,0,0,0,0,0,0,0,0.2439,0.2439,0.2441,0.2463,0.2468,0.2487,0.2491,0.2454,0.2484,0.2506,0.2511,0.2518,0.2498,0.2496,0.2492,0.2434,0.249,0.2488,0.2486,0.2484,0.2425,0.2425,0,0,0,0,0,0,0.2437,0.2438,0.244,0.2443,0.2463,0.2486,0.249,0.2484,0.2486,0.249,0.2516,0.2521,0.25,0.2496,0.2492,0.2493,0.2487,0.2484,0.2482,0.2425,0.2425,0.2425,0,0,0,0,0,0,0.2436,0.2436,0.2439,0.2444,0.2446,0.2484,0.2476,0.2483,0.2498,0.2495,0.2498,0.2527,0.2501,0.2496,0.2475,0.249,0.2483,0.248,0.2424,0.2425,0.2425,0.2446,0,0,0,0,0,0,0.2436,0.2435,0.2423,0.2443,0.2446,0.2429,0.2475,0.2482,0.2499,0.2506,0.2504,0.2503,0.2503,0.2479,0.2472,0.2485,0.2478,0.2424,0.2425,0.2425,0.2445,0.2447,0.2449,0,0,0,0,0,0.2435,0.2416,0.2422,0.2422,0.243,0.2429,0.243,0.2464,0.2498,0.2489,0.2502,0.2504,0.2479,0.2476,0.2467,0.248,0.2424,0.2424,0.2425,0.2444,0.2447,0.2449,0,0,0,0,0,0,0.2393,0.2421,0.2429,0.2413,0.2417,0.244,0.244,0.2463,0.2466,0.248,0.2487,0.2485,0.248,0.2467,0.2464,0.2467,0.2459,0.2458,0.2477,0.2479,0.2481,0.253,0.2475,0,0,0,0,0,0.2378,0.2381,0.2397,0.238,0.2387,0.2412,0.2417,0.2438,0.2449,0.2456,0.245,0.2457,0.247,0.2465,0.2455,0.2433,0.2449,0.2443,0.2445,0.2447,0.2482,0.253,0.2541,0.2427,0.2427,0.2427,0,0,0.2356,0.2371,0.2371,0.2373,0.2385,0.2403,0.2421,0.2427,0.2452,0.2446,0.2456,0.2451,0.2465,0.2462,0.2459,0.2455,0.2475,0.2448,0.245,0.2485,0.2532,0.2544,0.2554,0.2428,0.2428,0.2428,0,0,0.2336,0.2327,0.2339,0.2348,0.2368,0.2384,0.2389,0.2404,0.242,0.2414,0.2443,0.2455,0.2429,0.2465,0.2482,0.2484,0.2484,0.2469,0.2517,0.2562,0.2573,0.2582,0.2566,0.2575,0.2471,0.2471,0.2471,0,0.231,0.2331,0.2334,0.2355,0.2373,0.2384,0.2406,0.2418,0.242,0.2432,0.242,0.2448,0.245,0.2505,0.2524,0.2493,0.2496,0.2506,0.2567,0.2578,0.2587,0.2569,0.2578,0.2472,0.2472,0.2472,0.2472,0,0.2318,0.2335,0.2339,0.2381,0.2386,0.2399,0.2424,0.2422,0.2435,0.2452,0.2475,0.2478,0.2507,0.2507,0.2524,0.2594,0.2562,0.2563,0.2566,0.26,0.2578,0.2587,0.2474,0.2473,0.2473,0.2473,0,0,0.2268,0.2339,0.2341,0.2373,0.2408,0.2413,0.2443,0.2473,0.2502,0.2496,0.254,0.2575,0.2575,0.2598,0.2606,0.2656,0.2711,0.2647,0.2649,0.2639,0.2769,0.2538,0.2525,0.2723,0.2726,0.2728,0.2707,0,0.228,0.2345,0.2366,0.241,0.2449,0.2461,0.2484,0.2506,0.2519,0.2545,0.2583,0.2611,0.2612,0.2624,0.2679,0.2725,0.2745,0.2714,0.2732,0.2732,0.2531,0.2533,0.2377,0.2329,0.2716,0.2717,0.2719,0,0.2288,0.2339,0.2402,0.2455,0.2466,0.2482,0.2519,0.2537,0.2581,0.2589,0.2632,0.2649,0.2739,0.2718,0.2815,0.2795,0.279,0.2805,0.2804,0.2602,0.252,0.2367,0.2331,0.2246,0.2732,0.2731,0.273,0,0.2285,0.2353,0.2411,0.2432,0.2492,0.2503,0.252,0.255,0.2563,0.2624,0.2634,0.2723,0.2756,0.2817,0.2828,0.2842,0.2897,0.2912,0.2683,0.2665,0.2545,0.2509,0.2443,0.2958,0.2958,0.2958,0.2958,0,0.2301,0.2337,0.2414,0.2447,0.2482,0.2509,0.253,0.2552,0.2585,0.2604,0.2657,0.2681,0.2789,0.2813,0.2842,0.2763,0.2896,0.2695,0.2655,0.2534,0.25,0.2429,0.2415,0.2957,0.2957,0.2957,0.2958,0,0.2288,0.2346,0.2407,0.2477,0.2488,0.2507,0.2525,0.2539,0.2566,0.2595,0.2616,0.2676,0.2691,0.2718,0.279,0.2727,0.2598,0.2632,0.2438,0.2374,0.206,0.2051,0.1901,0.1866,0.2407,0.2401,0.2397,0,0.2287,0.2331,0.2418,0.2439,0.2467,0.2494,0.2503,0.253,0.254,0.2577,0.2591,0.2598,0.2571,0.2527,0.2441,0.237,0.2363,0.2149,0.2148,0.2007,0.1974,0.1947,0.1933,0.1995,0.1988,0.1981,0.1976,0,0.2292,0.2329,0.2389,0.2441,0.2462,0.2472,0.2488,0.2485,0.251,0.2513,0.2492,0.2469,0.2355,0.219,0.2034,0.1992,0.2001,0.2008,0.1965,0.1713,0.159,0.1547,0.2013,0.192,0.1926,0.193,0.1933,0.1935,0.2285,0.2328,0.2411,0.2432,0.2453,0.2436,0.2398,0.2401,0.2381,0.2307,0.2367,0.2214,0.2006,0.1755,0.1692,0.141,0.1546,0.135,0.1372,0.1373,0.1269,0.1544,0.1331,0.1333,0.1335,0.1337,0.1338,0,0.2287,0.2344,0.2384,0.2413,0.2386,0.2403,0.2372,0.2291,0.221,0.2126,0.2052,0.1721,0.1481,0.1292,0.0963,0.0825,0.0869,0.0787,0.08,0.0842,0.1171,0.108,0.0678,0.0678,0.0678,0.0678,0.0678,0.0678,0.2304,0.2356,0.2373,0.2332,0.2318,0.2234,0.2179,0.2057,0.1954,0.1662,0.1411,0.1296,0.1047,0.0695,0.0438,0.0418,0.0438,0.0314,0.0426,0.0717,0.0776,0.0831,0.0743,0.0278,0.0277,0.0073,0.007,0.0069]},{"header":{"parameterUnit":"m.s-1","parameterCategory":2,"la1":30.2991,"la2":30.254,"lo1":-89.0895,"lo2":-89.0444,"dy":0.0017,"dx":0.0017,"nx":28,"ny":28,"refTime":"2025-09-17T03:00:00:Z","depth":"0","parameterNumber":3,"parameterNumberName":"V-component_of_CURRENTS"},"data":[0,0,0,0,0,0,0,0,0,0,0,0,0,0,0,0,0,0,0,0,0,0,0,0,0,0,0,0,0,0,0,0,0,0,0,0,0,0,0,0,0,0,0,0,0,0,0,0,0,0,0,0,0,0,0,0,0,0,0.0219,0.0219,0,0.0235,0.0235,0.0235,0.0249,0.0249,0.0249,0.0249,0.0202,0.0201,0.02,0,0,0,0,0,0,0,0,0,0,0,0,0,0.0252,0.0251,0.0219,0.0219,0.0219,0.0235,0.0235,0.0235,0.0249,0.0249,0.0249,0.025,0.0203,0.0201,0.02,0,0,0,0,0,0,0,0,0,0,0,0,0,0.025,0.025,0.0219,0.0228,0.0228,0.0235,0.0235,0.0235,0.0249,0.0249,0.0249,0.025,0.0203,0.0201,0.0199,0.0184,0,0,0.0193,0.0192,0,0,0,0,0,0,0,0,0.025,0.0249,0.0226,0.0227,0.0228,0.024,0.0229,0.0215,0.0249,0.0242,0.0249,0.025,0.0208,0.0206,0.021,0.0182,0.018,0.0193,0.0192,0.0191,0.019,0,0,0,0,0,0,0,0.025,0.0248,0.0226,0.0226,0.0227,0.0248,0.0247,0.0227,0.0223,0.0243,0.0243,0.0244,0.0209,0.0212,0.0209,0.0179,0.0193,0.0191,0.019,0.0189,0.0232,0.0234,0,0,0,0,0,0,0.0244,0.0248,0.0225,0.0226,0.0239,0.0247,0.0247,0.0236,0.0225,0.0224,0.0244,0.0245,0.0216,0.0212,0.0208,0.0245,0.0191,0.0189,0.0188,0.0229,0.0232,0.0235,0,0,0,0,0,0,0.0244,0.0241,0.0225,0.0238,0.0237,0.0246,0.0235,0.0236,0.0242,0.0227,0.0224,0.0248,0.0216,0.021,0.0207,0.0241,0.0188,0.0186,0.0227,0.023,0.0234,0.0284,0,0,0,0,0,0,0.0245,0.0241,0.0235,0.0237,0.0236,0.0242,0.0234,0.0237,0.0242,0.0243,0.0229,0.0225,0.0216,0.021,0.0205,0.0238,0.0185,0.0224,0.0228,0.0232,0.0279,0.0289,0.0297,0,0,0,0,0,0.0246,0.0244,0.0234,0.0232,0.0226,0.0243,0.0245,0.0252,0.0242,0.0256,0.0247,0.0226,0.0236,0.0209,0.0203,0.0236,0.0222,0.0227,0.0232,0.0275,0.0287,0.0297,0,0,0,0,0,0,0.0262,0.0245,0.0235,0.0229,0.0238,0.0245,0.0254,0.0252,0.0256,0.0251,0.0233,0.0229,0.0249,0.0235,0.0207,0.0268,0.0234,0.0238,0.0269,0.028,0.0288,0.0319,0.0183,0,0,0,0,0,0.0259,0.0252,0.0245,0.0245,0.0244,0.0245,0.0251,0.0255,0.0256,0.0259,0.0248,0.025,0.0267,0.0264,0.0271,0.028,0.0295,0.0308,0.0317,0.0324,0.035,0.0434,0.0453,0.0252,0.0252,0.0252,0,0,0.0267,0.0257,0.0254,0.0248,0.025,0.0263,0.025,0.0262,0.028,0.025,0.0266,0.0271,0.0277,0.0307,0.0316,0.0296,0.0378,0.0331,0.0337,0.0359,0.0442,0.0461,0.0479,0.0256,0.0255,0.0254,0,0,0.0292,0.0267,0.0273,0.0277,0.0279,0.028,0.0282,0.0285,0.0295,0.0305,0.0308,0.0342,0.0331,0.0371,0.0383,0.0444,0.0425,0.0439,0.0499,0.0581,0.0598,0.0614,0.0605,0.062,0.0441,0.0441,0.0441,0,0.0304,0.03,0.0284,0.0294,0.0299,0.0287,0.0304,0.0314,0.0321,0.0344,0.0318,0.0386,0.0377,0.0459,0.0482,0.0465,0.0475,0.045,0.0592,0.0608,0.0623,0.0611,0.0627,0.0444,0.0444,0.0443,0.0443,0,0.0335,0.0331,0.0338,0.0338,0.0347,0.0358,0.0363,0.0377,0.0374,0.0397,0.0465,0.0478,0.053,0.0535,0.0517,0.063,0.0586,0.0593,0.0561,0.0647,0.0628,0.0643,0.0448,0.0447,0.0446,0.0446,0,0,0.0353,0.0358,0.0358,0.036,0.0366,0.0374,0.0407,0.0445,0.0489,0.0509,0.0591,0.0628,0.0651,0.0672,0.0676,0.0739,0.0822,0.0707,0.0709,0.0689,0.0941,0.0879,0.0889,0.0854,0.0858,0.0861,0.0865,0,0.038,0.04,0.0401,0.0424,0.0426,0.0432,0.0469,0.0506,0.0542,0.0618,0.0671,0.0744,0.0699,0.0738,0.0799,0.0843,0.0874,0.0816,0.0871,0.0871,0.0802,0.0911,0.0888,0.089,0.088,0.0882,0.0884,0,0.0401,0.0407,0.0431,0.0453,0.0458,0.0479,0.0537,0.0574,0.0679,0.0718,0.0811,0.0855,0.0963,0.0913,0.1021,0.0985,0.0963,0.0975,0.0975,0.0922,0.0842,0.0817,0.0918,0.0919,0.0907,0.0905,0.0903,0,0.0401,0.0424,0.044,0.0444,0.0475,0.0498,0.0524,0.0607,0.067,0.08,0.0882,0.0994,0.1079,0.1113,0.1113,0.1083,0.1213,0.1175,0.1082,0.1073,0.107,0.1055,0.1183,0.1241,0.1241,0.1241,0.1241,0,0.0412,0.0422,0.0438,0.0442,0.0479,0.05,0.0578,0.0624,0.0749,0.0865,0.0939,0.1064,0.1143,0.1216,0.1177,0.1183,0.126,0.1122,0.1106,0.1078,0.1065,0.1076,0.1071,0.1241,0.1241,0.1241,0.1241,0,0.0405,0.0417,0.043,0.0459,0.0474,0.0497,0.0592,0.0676,0.0772,0.0936,0.0992,0.1157,0.1256,0.1274,0.1343,0.1273,0.127,0.1231,0.1145,0.112,0.1027,0.1024,0.1129,0.1152,0.1153,0.1152,0.1151,0,0.0409,0.0411,0.0432,0.0459,0.0472,0.0521,0.0587,0.0676,0.078,0.0993,0.1091,0.1238,0.1348,0.1398,0.1335,0.1265,0.1252,0.116,0.1116,0.1056,0.1041,0.1037,0.1051,0.1099,0.1098,0.1097,0.1097,0,0.0413,0.0414,0.0429,0.0481,0.0532,0.0601,0.0693,0.0769,0.0915,0.1047,0.1236,0.1337,0.1399,0.1381,0.1281,0.1219,0.1178,0.1134,0.1149,0.109,0.1027,0.1029,0.0992,0.1088,0.1089,0.109,0.109,0.109,0.0422,0.0436,0.047,0.0521,0.059,0.0691,0.075,0.0875,0.1019,0.1209,0.1294,0.1408,0.1384,0.1277,0.1219,0.1083,0.111,0.1021,0.1036,0.1046,0.106,0.0955,0.0991,0.0991,0.0991,0.0991,0.0992,0,0.0451,0.0482,0.0529,0.06,0.0688,0.0714,0.0847,0.0917,0.1071,0.1212,0.1339,0.1324,0.1285,0.121,0.105,0.0993,0.0999,0.0978,0.1004,0.1035,0.1013,0.1,0.0949,0.0949,0.0949,0.0949,0.0949,0.0949,0.0479,0.0528,0.0555,0.0687,0.0743,0.0845,0.0911,0.1005,0.1095,0.1192,0.1204,0.1228,0.1172,0.1073,0.0995,0.0977,0.1015,0.0974,0.1024,0.1016,0.1022,0.1028,0.1018,0.0972,0.0972,0.1049,0.105,0.105]}],[{"header":{"parameterUnit":"m.s-1","parameterCategory":2,"la1":30.2991,"la2":30.254,"lo1":-89.0895,"lo2":-89.0444,"dy":0.0017,"dx":0.0017,"nx":28,"ny":28,"refTime":"2025-09-17T03:00:00:Z","depth":"2","parameterNumber":2,"parameterNumberName":"U-component_of_CURRENTS"},"data":[0,0,0,0,0,0,0,0,0,0,0,0,0,0,0,0,0,0,0,0,0,0,0,0,0,0,0,0,0,0,0,0,0,0,0,0,0,0,0,0,0,0,0,0,0,0,0,0,0,0,0,0,0,0,0,0,0,0,0.1522,0.152,0,0.1472,0.1473,0.1473,0.1564,0.1566,0.1568,0.157,0.1647,0.1647,0.1647,0,0,0,0,0,0,0,0,0,0,0,0,0,0.1607,0.1607,0.1522,0.152,0.1518,0.1472,0.1473,0.1473,0.1564,0.1566,0.1568,0.157,0.1646,0.1647,0.1647,0,0,0,0,0,0,0,0,0,0,0,0,0,0.1578,0.1607,0.1522,0.1548,0.1549,0.1472,0.1473,0.1473,0.1563,0.1566,0.1569,0.1571,0.1646,0.1647,0.1647,0.1596,0,0,0.1649,0.1649,0,0,0,0,0,0,0,0,0.158,0.1577,0.1546,0.1546,0.1547,0.1516,0.153,0.1516,0.1563,0.1572,0.157,0.1573,0.1604,0.1608,0.161,0.16,0.1603,0.1649,0.1649,0.165,0.165,0,0,0,0,0,0,0,0.1582,0.1578,0.1516,0.1543,0.1544,0.1531,0.1532,0.1528,0.1586,0.1571,0.1574,0.1547,0.1607,0.1609,0.1612,0.1604,0.1649,0.165,0.165,0.165,0.1762,0.1765,0,0,0,0,0,0,0.1562,0.1581,0.1517,0.1513,0.1555,0.1527,0.1528,0.1534,0.1583,0.1588,0.1545,0.1551,0.1607,0.1612,0.1615,0.1698,0.165,0.165,0.165,0.176,0.1763,0.1766,0,0,0,0,0,0,0.1565,0.1559,0.1519,0.1533,0.1526,0.1522,0.1527,0.1531,0.1562,0.1559,0.157,0.1573,0.1609,0.1615,0.1641,0.1697,0.165,0.1651,0.1756,0.1761,0.1764,0.1773,0,0,0,0,0,0,0.1569,0.1561,0.1575,0.1533,0.1524,0.1515,0.1523,0.1527,0.1532,0.1542,0.1585,0.1594,0.1612,0.164,0.1641,0.1697,0.1651,0.1753,0.1758,0.1763,0.177,0.1777,0.1784,0,0,0,0,0,0.1572,0.1569,0.1578,0.1569,0.154,0.1514,0.1512,0.1525,0.1531,0.1561,0.1577,0.1595,0.1676,0.164,0.1641,0.1699,0.1751,0.1757,0.1763,0.1767,0.1776,0.1784,0,0,0,0,0,0,0.1597,0.1574,0.1584,0.1572,0.1564,0.1526,0.1535,0.1529,0.1561,0.1586,0.1588,0.1598,0.1649,0.1669,0.163,0.1755,0.1732,0.1738,0.1735,0.1743,0.175,0.1754,0.1652,0,0,0,0,0,0.1607,0.1617,0.1586,0.1581,0.1581,0.1563,0.1554,0.1569,0.1567,0.1587,0.1605,0.1643,0.1668,0.1699,0.1725,0.1764,0.1774,0.182,0.1827,0.1832,0.1842,0.1909,0.1922,0.1785,0.1785,0.1785,0,0,0.1599,0.1595,0.1593,0.1589,0.1587,0.1574,0.1572,0.158,0.1581,0.1586,0.1621,0.1652,0.1679,0.1737,0.1767,0.1766,0.187,0.184,0.1844,0.1851,0.1917,0.193,0.1941,0.1789,0.1789,0.1788,0,0,0.1577,0.1608,0.1607,0.1611,0.1613,0.1605,0.1609,0.1604,0.1636,0.1651,0.1667,0.1728,0.1757,0.1803,0.182,0.188,0.189,0.1912,0.1961,0.2026,0.2037,0.2047,0.2033,0.2042,0.1933,0.1933,0.1933,0,0.1587,0.1576,0.1599,0.16,0.1597,0.1616,0.1609,0.1625,0.1633,0.1665,0.1683,0.1769,0.1792,0.1856,0.1892,0.1895,0.1907,0.1915,0.2031,0.2042,0.2052,0.2036,0.2046,0.1934,0.1934,0.1934,0.1934,0,0.1539,0.156,0.1562,0.1579,0.1585,0.1595,0.1605,0.1647,0.1681,0.17,0.1792,0.1837,0.19,0.1932,0.1921,0.2022,0.1994,0.2012,0.1998,0.2065,0.2045,0.2055,0.1936,0.1935,0.1935,0.1935,0,0,0.1519,0.153,0.1542,0.1561,0.159,0.159,0.1619,0.1655,0.1694,0.1765,0.1827,0.1902,0.1962,0.1988,0.202,0.2089,0.2148,0.2089,0.2091,0.2053,0.2242,0.2028,0.2017,0.2191,0.2194,0.2196,0.2182,0,0.1497,0.1492,0.1503,0.1518,0.1527,0.1577,0.1597,0.1647,0.1711,0.1785,0.1885,0.1958,0.197,0.2031,0.2098,0.217,0.2183,0.2147,0.2203,0.2204,0.1989,0.2026,0.1885,0.1845,0.2191,0.2192,0.2194,0,0.1469,0.1473,0.1473,0.1524,0.1534,0.1544,0.1627,0.165,0.1757,0.1821,0.1933,0.2,0.2133,0.2122,0.2262,0.2246,0.2226,0.2255,0.2255,0.2063,0.2009,0.1847,0.1849,0.221,0.2208,0.2207,0.2206,0,0.1459,0.1477,0.1483,0.1493,0.1526,0.1561,0.1591,0.1678,0.1732,0.1862,0.194,0.2081,0.2184,0.2249,0.2296,0.2304,0.2401,0.242,0.2178,0.216,0.2053,0.202,0.2438,0.2438,0.2438,0.2438,0.2438,0,0.1454,0.1472,0.1485,0.1489,0.1525,0.1558,0.1627,0.1682,0.1784,0.186,0.1969,0.2061,0.2229,0.2298,0.2315,0.2271,0.2412,0.2176,0.2154,0.2044,0.2012,0.2354,0.2344,0.2437,0.2438,0.2438,0.2438,0,0.146,0.1463,0.1479,0.1505,0.1525,0.1557,0.1641,0.1695,0.1788,0.1895,0.1948,0.2097,0.2168,0.2229,0.2323,0.2271,0.2265,0.2165,0.1974,0.1927,0.1969,0.1961,0.1951,0.1944,0.1938,0.1932,0.1928,0,0.1457,0.1461,0.1489,0.1511,0.1531,0.1583,0.1627,0.1701,0.1758,0.1904,0.1956,0.2041,0.2051,0.2071,0.2014,0.1938,0.2035,0.1727,0.1701,0.1945,0.1926,0.1928,0.1928,0.1565,0.1558,0.1552,0.1547,0,0.1455,0.1472,0.1484,0.1519,0.156,0.1603,0.1667,0.1697,0.1786,0.1838,0.1892,0.1902,0.1862,0.1737,0.1601,0.1553,0.1752,0.1597,0.1971,0.1673,0.1569,0.1554,0.157,0.1496,0.1501,0.1505,0.1508,0.151,0.147,0.148,0.1502,0.1536,0.1585,0.1621,0.163,0.1654,0.1679,0.1682,0.1743,0.1649,0.1621,0.1322,0.1236,0.1168,0.1295,0.1268,0.1292,0.1322,0.1243,0.113,0.0957,0.0959,0.0961,0.0962,0.0963,0,0.1474,0.1496,0.152,0.1549,0.1577,0.163,0.1655,0.1592,0.1544,0.1496,0.1439,0.1213,0.1057,0.1021,0.0828,0.0765,0.0838,0.073,0.0862,0.0911,0.0955,0.0865,0.0476,0.0474,0.0473,0.0471,0,0,0.1478,0.1487,0.1482,0.1518,0.157,0.1576,0.1579,0.1443,0.1349,0.1155,0.1042,0.1003,0.0995,0.0741,0.0672,0.0558,0.0744,0.0515,0.0908,0.1116,0.1159,0.1256,0.1167,0,0,0,0,0]},{"header":{"parameterUnit":"m.s-1","parameterCategory":2,"la1":30.2991,"la2":30.254,"lo1":-89.0895,"lo2":-89.0444,"dy":0.0017,"dx":0.0017,"nx":28,"ny":28,"refTime":"2025-09-17T03:00:00:Z","depth":"2","parameterNumber":3,"parameterNumberName":"V-component_of_CURRENTS"},"data":[0,0,0,0,0,0,0,0,0,0,0,0,0,0,0,0,0,0,0,0,0,0,0,0,0,0,0,0,0,0,0,0,0,0,0,0,0,0,0,0,0,0,0,0,0,0,0,0,0,0,0,0,0,0,0,0,0,0,0.0001,0.0002,0,0.0046,0.0047,0.0047,0.0038,0.0037,0.0037,0.0036,-0.0057,-0.0059,-0.0061,0,0,0,0,0,0,0,0,0,0,0,0,0,-0.0021,-0.0022,0.0001,0.0002,0.0003,0.0046,0.0047,0.0047,0.0038,0.0037,0.0036,0.0036,-0.0057,-0.0059,-0.0062,0,0,0,0,0,0,0,0,0,0,0,0,0,-0.0001,-0.0022,0.0001,0.0006,0.0007,0.0046,0.0047,0.0047,0.0038,0.0037,0.0036,0.0036,-0.0056,-0.0059,-0.0062,-0.0065,0,0,-0.0071,-0.0072,0,0,0,0,0,0,0,0,-0.0002,-0.0,0.0004,0.0006,0.0007,0.0038,0.0005,0.0004,0.0038,0.0023,0.0036,0.0035,-0.0036,-0.004,-0.0033,-0.0069,-0.0073,-0.0071,-0.0073,-0.0074,-0.0075,0,0,0,0,0,0,0,-0.0003,-0.0002,0.0016,0.0006,0.0007,0.0031,0.0032,0.0005,-0.0008,0.0024,0.0024,0.0035,-0.0036,-0.003,-0.0035,-0.0074,-0.0071,-0.0074,-0.0076,-0.0077,-0.0098,-0.0097,0,0,0,0,0,0,-0.0005,-0.0004,0.0014,0.0017,0.0004,0.0032,0.0033,0.0026,-0.0004,-0.0008,0.0035,0.0034,-0.0024,-0.0032,-0.0039,-0.006,-0.0074,-0.0077,-0.0079,-0.01,-0.0098,-0.0097,0,0,0,0,0,0,-0.0006,-0.0005,0.0013,0.0012,0.0016,0.0033,0.0026,0.0028,0.0032,0.0007,-0.0,0.0037,-0.0025,-0.0035,-0.0069,-0.0064,-0.0079,-0.0081,-0.0101,-0.0099,-0.0097,-0.0094,0,0,0,0,0,0,-0.0007,-0.0006,-0.0011,0.0011,0.0016,0.0029,0.0027,0.0029,0.0041,0.004,0.0005,-0.0003,-0.0026,-0.0064,-0.0072,-0.0068,-0.0084,-0.0103,-0.01,-0.0098,-0.0095,-0.0092,-0.0089,0,0,0,0,0,-0.0009,-0.0011,-0.0013,-0.001,0.0007,0.003,0.0034,0.0042,0.0042,0.0042,0.0018,-0.0002,-0.0054,-0.0067,-0.0076,-0.0073,-0.0104,-0.0101,-0.0098,-0.0097,-0.0093,-0.0089,0,0,0,0,0,0,-0.0013,-0.0011,-0.0013,-0.0012,0.0004,0.0029,0.0037,0.0044,0.003,0.0023,-0.0005,-0.0016,-0.0043,-0.005,-0.0063,-0.0065,-0.0075,-0.0074,-0.007,-0.0067,-0.0063,-0.0038,-0.0086,0,0,0,0,0,-0.0018,-0.0027,-0.0011,-0.0008,-0.0002,0.0017,0.0028,0.0034,0.0031,0.0026,0.0003,-0.0014,-0.0034,-0.0046,-0.0068,-0.0078,-0.0049,-0.0072,-0.0069,-0.0066,-0.0047,0.0047,0.0061,-0.0088,-0.0088,-0.0088,0,0,-0.0016,-0.0015,-0.0019,-0.001,0.0002,0.0009,0.002,0.0037,0.0035,0.0014,-0.0005,-0.0018,-0.0035,-0.0049,-0.0058,-0.0058,-0.0021,-0.0063,-0.0061,-0.0043,0.0052,0.0066,0.0079,-0.0086,-0.0086,-0.0086,0,0,-0.0012,-0.0018,-0.0025,-0.0016,0.0001,0.0009,0.0013,0.003,0.0027,0.0015,0.0002,0.0007,-0.0034,-0.0027,-0.0033,-0.0018,-0.0014,-0.003,0.0008,0.0098,0.0112,0.0124,0.0123,0.0135,-0.002,-0.002,-0.002,0,-0.001,-0.002,-0.0018,-0.0016,-0.001,0.0006,0.0008,0.0011,0.0014,0.0017,0.0005,0.0008,-0.0013,0.0,0.0005,-0.0011,0.0014,-0.0015,0.0103,0.0117,0.0129,0.0126,0.0139,-0.002,-0.002,-0.002,-0.002,0,-0.0007,-0.0018,-0.0015,-0.0023,-0.0015,-0.0007,-0.0001,0.0,0.0001,0.0012,0.0023,0.0023,0.0036,0.0033,0.0014,0.0089,0.0063,0.0088,0.0092,0.0145,0.0136,0.015,-0.0019,-0.0019,-0.0019,-0.0019,0,0,0.0002,-0.0015,-0.0015,-0.0022,-0.002,-0.0009,-0.0015,-0.0005,0.0014,0.0019,0.006,0.0048,0.0076,0.0076,0.0077,0.0157,0.0237,0.0161,0.0165,0.0155,0.038,0.0314,0.0323,0.0292,0.0296,0.0299,0.0317,0,0.0002,-0.0011,-0.0016,-0.0021,-0.0027,-0.0021,-0.0018,-0.0006,0.0009,0.005,0.0081,0.0112,0.0082,0.011,0.0179,0.0259,0.0285,0.0226,0.0336,0.0338,0.0273,0.0343,0.0333,0.0347,0.0331,0.0333,0.0335,0,0.0005,-0.0007,-0.0023,-0.0026,-0.0023,-0.0024,-0.0001,0.0005,0.0055,0.0079,0.0127,0.0158,0.0254,0.0235,0.0374,0.0343,0.0343,0.0388,0.039,0.0349,0.0303,0.0306,0.0373,0.0358,0.0357,0.0355,0.0353,0,0.0005,-0.0007,-0.0025,-0.0027,-0.0028,-0.0029,-0.0023,0.0012,0.0047,0.0115,0.0185,0.026,0.0356,0.0412,0.0471,0.0444,0.0626,0.0601,0.0509,0.05,0.0525,0.0513,0.0659,0.0659,0.0659,0.0659,0.0659,0,-0.0,-0.001,-0.0028,-0.0037,-0.0032,-0.003,0.0002,0.0019,0.0095,0.0185,0.021,0.0329,0.0424,0.0523,0.0521,0.0575,0.0658,0.053,0.0531,0.0516,0.0504,0.0553,0.054,0.066,0.066,0.066,0.066,0,-0.0009,-0.0021,-0.0037,-0.0044,-0.0038,-0.0037,0.0016,0.0065,0.0126,0.0259,0.03,0.0439,0.0566,0.059,0.0711,0.0662,0.0701,0.0658,0.0582,0.0573,0.0478,0.0465,0.058,0.0579,0.0578,0.0576,0.0576,0,-0.0017,-0.003,-0.0043,-0.0036,-0.0043,-0.0026,0.0013,0.0067,0.0145,0.0345,0.0437,0.0575,0.0685,0.0783,0.0737,0.0686,0.0669,0.0602,0.0549,0.0496,0.0485,0.0474,0.0463,0.0553,0.0552,0.0551,0.0551,0,-0.0028,-0.0038,-0.005,-0.0035,-0.001,0.0038,0.0101,0.0177,0.0299,0.0441,0.066,0.0763,0.081,0.0811,0.0695,0.0651,0.0621,0.0579,0.0638,0.0561,0.047,0.0458,0.0449,0.0544,0.0544,0.0545,0.0545,0.0546,-0.0033,-0.0037,-0.004,-0.0021,0.0021,0.0118,0.0182,0.0312,0.0476,0.0688,0.0773,0.0893,0.0853,0.0705,0.0645,0.0539,0.0538,0.0488,0.0493,0.0497,0.0478,0.039,0.0439,0.0439,0.0439,0.0439,0.0439,0,-0.0022,-0.0021,-0.0008,0.0035,0.0109,0.0123,0.0266,0.0368,0.0595,0.0729,0.0879,0.0815,0.0782,0.0694,0.0532,0.0451,0.0458,0.0413,0.0449,0.0456,0.0463,0.0443,0.0394,0.0393,0.0393,0.0393,0,0,-0.0012,0.0001,0.0015,0.0122,0.0165,0.0276,0.0368,0.0535,0.064,0.0793,0.0827,0.0848,0.0772,0.0638,0.055,0.0471,0.0475,0.0445,0.0487,0.0547,0.0554,0.051,0.0487,0,0,0,0,0]}],[{"header":{"parameterUnit":"m.s-1","parameterCategory":2,"la1":30.2991,"la2":30.254,"lo1":-89.0895,"lo2":-89.0444,"dy":0.0017,"dx":0.0017,"nx":28,"ny":28,"refTime":"2025-09-17T03:00:00:Z","depth":"4","parameterNumber":2,"parameterNumberName":"U-component_of_CURRENTS"},"data":[0,0,0,0,0,0,0,0,0,0,0,0,0,0,0,0,0,0,0,0,0,0,0,0,0,0,0,0,0,0,0,0,0,0,0,0,0,0,0,0,0,0,0,0,0,0,0,0,0,0,0,0,0,0,0,0,0,0,0.0357,0.0357,0,0.0345,0.0345,0.0344,0.0361,0.0361,0.0362,0.0362,0.0329,0.0328,0.0326,0,0,0,0,0,0,0,0,0,0,0,0,0,0.0394,0.0393,0.0357,0.0357,0.0357,0.0345,0.0345,0.0344,0.036,0.0361,0.0362,0.0363,0.0329,0.0328,0.0326,0,0,0,0,0,0,0,0,0,0,0,0,0,0.0379,0.0392,0.0357,0.0363,0.0364,0.0345,0.0345,0.0344,0.036,0.0361,0.0362,0.0363,0.033,0.0328,0.0326,0.0294,0,0,0.0319,0.0318,0,0,0,0,0,0,0,0,0.038,0.0377,0.0363,0.0363,0.0363,0.0355,0.0345,0.0327,0.036,0.0361,0.0362,0.0363,0.0335,0.0333,0.0328,0.0293,0.0291,0.0319,0.0318,0.0317,0.0316,0,0,0,0,0,0,0,0.0381,0.0378,0.0352,0.0362,0.0363,0.0367,0.0366,0.0342,0.0343,0.0361,0.0362,0.0361,0.0336,0.033,0.0328,0.0291,0.0319,0.0317,0.0316,0.0315,0.0316,0.0317,0,0,0,0,0,0,0.0382,0.0379,0.0352,0.0351,0.0374,0.0365,0.0364,0.0357,0.0343,0.0343,0.0361,0.0362,0.0334,0.033,0.0326,0.0357,0.0317,0.0315,0.0313,0.0315,0.0317,0.0318,0,0,0,0,0,0,0.0382,0.0379,0.0353,0.0366,0.0363,0.0364,0.0355,0.0356,0.0368,0.0343,0.0342,0.0374,0.0334,0.033,0.0329,0.0353,0.0314,0.0312,0.0313,0.0315,0.0317,0.0374,0,0,0,0,0,0,0.0383,0.0379,0.0385,0.0365,0.0362,0.0353,0.0355,0.0355,0.0365,0.0367,0.0353,0.035,0.0335,0.0333,0.0327,0.035,0.031,0.0312,0.0314,0.0317,0.037,0.0377,0.0384,0,0,0,0,0,0.0384,0.0382,0.0386,0.0383,0.0366,0.0353,0.0352,0.0356,0.0365,0.037,0.037,0.0352,0.0345,0.0331,0.0325,0.0347,0.031,0.0313,0.0316,0.0367,0.0376,0.0383,0,0,0,0,0,0,0.0407,0.0382,0.0386,0.0379,0.0375,0.0356,0.0363,0.0363,0.0366,0.0377,0.0356,0.0353,0.0357,0.0348,0.0333,0.0358,0.0329,0.0331,0.037,0.0378,0.0385,0.0381,0.0308,0,0,0,0,0,0.0413,0.0402,0.0387,0.0385,0.0384,0.0378,0.0378,0.038,0.0375,0.0378,0.0371,0.037,0.036,0.0367,0.0349,0.0361,0.0376,0.0377,0.0384,0.0389,0.0384,0.0457,0.0471,0.0328,0.0328,0.0328,0,0,0.0419,0.0408,0.0401,0.0389,0.0387,0.037,0.038,0.0385,0.0375,0.0372,0.0371,0.0379,0.0364,0.0376,0.038,0.0377,0.0437,0.0393,0.0398,0.0389,0.0462,0.0476,0.0488,0.033,0.033,0.0329,0,0,0.0409,0.042,0.0399,0.0395,0.0395,0.0387,0.0391,0.0387,0.0395,0.0398,0.0395,0.0429,0.0409,0.042,0.0417,0.0451,0.0456,0.0453,0.0498,0.0571,0.0583,0.0594,0.0627,0.0641,0.0474,0.0474,0.0474,0,0.0422,0.0389,0.0396,0.0378,0.037,0.0391,0.0369,0.0374,0.0375,0.0396,0.0406,0.0429,0.0428,0.0446,0.0473,0.0465,0.0499,0.0467,0.0581,0.0592,0.0602,0.0633,0.0648,0.0477,0.0477,0.0477,0.0477,0,0.0386,0.0369,0.0363,0.0338,0.0336,0.0329,0.0331,0.0351,0.0375,0.0397,0.0436,0.0455,0.0487,0.0497,0.0496,0.0569,0.0565,0.0568,0.0561,0.062,0.0649,0.0663,0.0482,0.0481,0.048,0.0479,0,0,0.0389,0.0341,0.0343,0.0316,0.0316,0.0304,0.0311,0.0325,0.0355,0.0395,0.0442,0.0466,0.0531,0.0532,0.0554,0.0622,0.0735,0.0643,0.0645,0.0675,0.0884,0.0739,0.074,0.0775,0.0778,0.0781,0.0873,0,0.0359,0.0298,0.0293,0.0249,0.0214,0.0246,0.0252,0.0286,0.0337,0.04,0.0465,0.0514,0.0526,0.0575,0.0648,0.0698,0.0775,0.0708,0.082,0.0822,0.0687,0.0752,0.079,0.0883,0.0886,0.0888,0.089,0,0.0319,0.0281,0.0222,0.0191,0.0187,0.0183,0.0222,0.0239,0.0343,0.0395,0.0488,0.0548,0.0642,0.0662,0.0793,0.0757,0.0835,0.0877,0.0882,0.0732,0.0703,0.0812,0.0915,0.0913,0.0911,0.091,0.0908,0,0.0281,0.0231,0.0177,0.0165,0.0146,0.0156,0.0177,0.0258,0.0309,0.0422,0.0498,0.0595,0.0677,0.0772,0.0859,0.0859,0.0995,0.1007,0.0942,0.0932,0.101,0.0997,0.1131,0.113,0.113,0.113,0.113,0,0.0227,0.0188,0.0162,0.0131,0.0119,0.0135,0.018,0.0218,0.0337,0.0418,0.0519,0.0589,0.0724,0.0814,0.0882,0.0927,0.1023,0.0949,0.0953,0.1029,0.1018,0.1019,0.1005,0.1133,0.1133,0.1132,0.1131,0,0.0171,0.0153,0.0097,0.0083,0.0089,0.0096,0.018,0.0233,0.0336,0.0449,0.0498,0.0633,0.0715,0.0801,0.0944,0.0947,0.1002,0.1006,0.1051,0.1056,0.0891,0.0879,0.0953,0.0949,0.0945,0.0942,0.094,0,0.0126,0.008,0.0061,0.0069,0.0066,0.0097,0.0136,0.0226,0.0295,0.0455,0.0506,0.0628,0.07,0.0784,0.0852,0.0925,0.0933,0.0963,0.0952,0.0879,0.0877,0.087,0.0863,0.0934,0.0933,0.0932,0.0931,0,0.0033,0.0036,0.0003,0.0027,0.0055,0.0081,0.0144,0.0191,0.0314,0.0409,0.0528,0.0598,0.0672,0.0735,0.078,0.0837,0.0933,0.0927,0.0935,0.0926,0.0857,0.0857,0.0854,0.0919,0.0921,0.0922,0.0922,0,-0.0014,-0.0035,-0.0044,-0.0012,0.0023,0.0065,0.0095,0.0182,0.0263,0.0441,0.0464,0.0576,0.0668,0.0688,0.0726,0.0748,0.0762,0.0779,0.0796,0.0811,0.0712,0.0601,0.0594,0,0,0,0,0,-0.0062,-0.0077,-0.0072,-0.004,0.0002,0.0031,0.0104,0.015,0.026,0.0336,0.0415,0.0478,0.055,0.0593,0.059,0.0625,0.0733,0.0615,0.0753,0.085,0.0865,0.0756,0,0,0,0,0,0,-0.0085,-0.0111,-0.0094,-0.0058,-0.0029,0.0012,0.0057,0.0124,0.0179,0.0298,0.034,0.0437,0.05,0.0547,0.0579,0.0588,0.0664,0.0676,0.0675,0.0842,0.0855,0.0867,0.076,0,0,0,0,0]},{"header":{"parameterUnit":"m.s-1","parameterCategory":2,"la1":30.2991,"la2":30.254,"lo1":-89.0895,"lo2":-89.0444,"dy":0.0017,"dx":0.0017,"nx":28,"ny":28,"refTime":"2025-09-17T03:00:00:Z","depth":"4","parameterNumber":3,"parameterNumberName":"V-component_of_CURRENTS"},"data":[0,0,0,0,0,0,0,0,0,0,0,0,0,0,0,0,0,0,0,0,0,0,0,0,0,0,0,0,0,0,0,0,0,0,0,0,0,0,0,0,0,0,0,0,0,0,0,0,0,0,0,0,0,0,0,0,0,0,0.0186,0.0187,0,0.0219,0.0219,0.0219,0.024,0.024,0.024,0.024,0.026,0.026,0.026,0,0,0,0,0,0,0,0,0,0,0,0,0,0.0124,0.0125,0.0186,0.0187,0.0187,0.0219,0.0219,0.0219,0.024,0.024,0.024,0.0241,0.0259,0.026,0.026,0,0,0,0,0,0,0,0,0,0,0,0,0,0.0152,0.0125,0.0186,0.0202,0.0204,0.0219,0.0219,0.0219,0.024,0.024,0.024,0.0241,0.0259,0.026,0.026,0.0257,0,0,0.0262,0.0262,0,0,0,0,0,0,0,0,0.015,0.0154,0.0199,0.0201,0.0203,0.0226,0.0204,0.0232,0.024,0.0225,0.024,0.0241,0.0248,0.0249,0.0253,0.0258,0.0259,0.0262,0.0262,0.0262,0.0262,0,0,0,0,0,0,0,0.0149,0.0153,0.0198,0.02,0.0202,0.0201,0.0206,0.0209,0.0233,0.0226,0.0228,0.0233,0.0248,0.0253,0.0254,0.0259,0.0262,0.0262,0.0262,0.0263,0.0244,0.0243,0,0,0,0,0,0,0.0147,0.0151,0.0197,0.0199,0.0178,0.0202,0.0207,0.0218,0.0233,0.0237,0.0233,0.0234,0.0252,0.0253,0.0255,0.0248,0.0262,0.0263,0.0263,0.0245,0.0244,0.0243,0,0,0,0,0,0,0.0146,0.0151,0.0196,0.0176,0.0182,0.0203,0.0215,0.0218,0.0229,0.0239,0.0242,0.0241,0.0252,0.0254,0.0251,0.0249,0.0263,0.0263,0.0246,0.0244,0.0243,0.0236,0,0,0,0,0,0,0.0144,0.0151,0.0159,0.0176,0.0183,0.0203,0.0215,0.0219,0.0232,0.0234,0.0246,0.0248,0.0252,0.025,0.0252,0.0249,0.0264,0.0247,0.0245,0.0244,0.0237,0.0235,0.0233,0,0,0,0,0,0.0142,0.0149,0.016,0.0165,0.0194,0.0203,0.0206,0.0221,0.0232,0.0233,0.0236,0.0248,0.0242,0.025,0.0252,0.025,0.0247,0.0245,0.0244,0.0238,0.0235,0.0233,0,0,0,0,0,0,0.013,0.0153,0.0164,0.018,0.0191,0.0207,0.0213,0.0223,0.0229,0.0231,0.0241,0.0242,0.0239,0.0241,0.025,0.0237,0.0246,0.0244,0.0241,0.0238,0.0236,0.0253,0.0264,0,0,0,0,0,0.0131,0.0139,0.0162,0.0172,0.0181,0.0198,0.0206,0.0214,0.0221,0.0225,0.0233,0.0235,0.0232,0.0233,0.0231,0.0227,0.0227,0.0224,0.0222,0.022,0.0233,0.0214,0.0211,0.0237,0.0237,0.0237,0,0,0.0128,0.0142,0.0148,0.0169,0.0182,0.0197,0.0203,0.0212,0.0224,0.0225,0.0239,0.023,0.0228,0.0221,0.022,0.0224,0.021,0.0218,0.0216,0.0231,0.0212,0.0209,0.0207,0.0236,0.0236,0.0236,0,0,0.0124,0.0142,0.0149,0.0162,0.0179,0.0191,0.0195,0.0212,0.022,0.0224,0.0225,0.0213,0.0216,0.021,0.0208,0.0191,0.0199,0.0189,0.0194,0.0174,0.0173,0.0171,0.0163,0.0161,0.0187,0.0187,0.0187,0,0.0122,0.0144,0.0151,0.0164,0.0186,0.0192,0.0213,0.0216,0.0227,0.0235,0.0226,0.0215,0.0211,0.0203,0.0196,0.0189,0.0183,0.0207,0.0173,0.0171,0.017,0.0162,0.0159,0.0187,0.0187,0.0187,0.0187,0,0.0127,0.0151,0.0156,0.0182,0.0197,0.0214,0.0228,0.0236,0.0243,0.0245,0.0234,0.0211,0.0209,0.0194,0.0194,0.018,0.0181,0.0172,0.0184,0.0167,0.0159,0.0157,0.0186,0.0186,0.0186,0.0187,0,0,0.0118,0.0156,0.0161,0.0191,0.0216,0.0234,0.0248,0.027,0.0281,0.0262,0.0269,0.0241,0.0225,0.0221,0.0203,0.018,0.0159,0.0176,0.0175,0.0176,0.0125,0.0121,0.0118,0.0144,0.0143,0.0143,0.0122,0,0.0131,0.017,0.0183,0.023,0.0263,0.0279,0.0295,0.0308,0.0303,0.0301,0.0265,0.0257,0.0235,0.0226,0.0199,0.0166,0.0154,0.0167,0.0135,0.0135,0.0139,0.0115,0.0142,0.012,0.012,0.012,0.0119,0,0.0142,0.0175,0.0225,0.0282,0.0297,0.032,0.0361,0.0373,0.0361,0.035,0.0322,0.0294,0.0258,0.0238,0.0178,0.0187,0.0169,0.0139,0.0137,0.014,0.0127,0.0141,0.0115,0.0116,0.0116,0.0116,0.0116,0,0.0157,0.0209,0.0259,0.0279,0.0332,0.036,0.0388,0.0393,0.0408,0.0382,0.0375,0.0319,0.0294,0.0245,0.0185,0.0186,0.0117,0.0108,0.0091,0.0091,0.0106,0.0108,0.0087,0.0087,0.0088,0.0088,0.0088,0,0.0181,0.0222,0.0274,0.0307,0.0362,0.0391,0.0434,0.0439,0.0444,0.0445,0.0406,0.0376,0.0296,0.0244,0.0192,0.0128,0.0124,0.0096,0.0083,0.0102,0.0104,0.0105,0.0107,0.0087,0.0087,0.0087,0.0087,0,0.0199,0.0228,0.0293,0.0358,0.0374,0.0421,0.0476,0.0491,0.0497,0.0492,0.0487,0.0426,0.0342,0.0266,0.0176,0.0144,0.0078,0.0068,0.0099,0.0088,0.0068,0.007,0.0044,0.0044,0.0044,0.0043,0.0043,0,0.0212,0.0248,0.0328,0.0356,0.039,0.0451,0.0476,0.051,0.0518,0.0508,0.0494,0.0434,0.0376,0.0249,0.0166,0.007,0.0066,0.0054,0.0059,0.0072,0.0063,0.0065,0.0067,0.0043,0.0043,0.0043,0.0043,0,0.0244,0.0274,0.0324,0.0372,0.0413,0.0464,0.0504,0.0513,0.053,0.0545,0.0496,0.0436,0.0344,0.0236,0.017,0.01,0.0062,0.0051,0.0051,0.0055,0.007,0.0061,0.0064,0.0041,0.0042,0.0042,0.0042,0,0.0258,0.0292,0.0338,0.0376,0.0426,0.0449,0.0481,0.0491,0.0512,0.0506,0.0481,0.0397,0.0354,0.0251,0.0176,0.0113,0.0102,0.0104,0.0101,0.0102,0.0121,0.0148,0.0134,0,0,0,0,0,0.0268,0.0285,0.0324,0.0361,0.041,0.0435,0.0475,0.0498,0.0513,0.0484,0.0493,0.0405,0.03,0.0248,0.0182,0.0158,0.0081,0.0081,0.0079,0.0036,0.0037,0.0048,0,0,0,0,0,0,0.0265,0.0305,0.0313,0.0334,0.0354,0.0399,0.0429,0.0443,0.0435,0.0445,0.0383,0.0398,0.0282,0.0325,0.0177,0.0159,0.0154,0.0041,0.0041,0.0035,0.0036,0.0037,0.0049,0,0,0,0,0]}]]